Tracking 35055 objects as of 18-Aug-2026
HD Live streaming from Space Station
objects crossing your sky now

SALYUT 7 DEB


SALYUT 7 DEB is no longer on orbit


NORAD ID: 14388
Int'l Code: 1982-033AJ
Launch date: April 19, 1982
Source: Commonwealth of Independent States (former USSR) (CIS)
Launch site: TYURATAM MISSILE AND SPACE COMPLEX (TTMTR)
Decay date: 1983-11-01

Note: This is SATELLITE DEBRIS
Your satellite tracking list
Your tracking list is empty




NASA's NSSDC Master Catalog

Two Line Element Set (TLE):
1 14388U 82033 AJ 83304.55443122  .06704375 +53970-4 +13479-2 0  9990
2 14388 051.6190 126.5534 0005875 271.2871 087.7508 16.30559539088576
Source of the keplerian elements: AFSPC